TimeEDT,TemperatureF,Dew PointF,Humidity,Sea Level PressureIn,VisibilityMPH,Wind Direction,Wind SpeedMPH,Gust SpeedMPH,PrecipitationIn,Events,Conditions,WindDirDegrees,DateUTC
12:56 AM,71.1,69.1,93,29.62,6.0,Calm,Calm,-,N/A,,Clear,0,2013-07-24 04:56:00
1:56 AM,71.1,70.0,96,29.61,7.0,Calm,Calm,-,N/A,,Clear,0,2013-07-24 05:56:00
2:56 AM,72.0,70.0,93,29.62,9.0,WNW,3.5,-,N/A,,Overcast,290,2013-07-24 06:56:00
3:56 AM,72.0,70.0,93,29.61,8.0,NW,3.5,-,N/A,,Clear,310,2013-07-24 07:56:00
4:56 AM,71.1,70.0,96,29.62,6.0,Calm,Calm,-,N/A,,Clear,0,2013-07-24 08:56:00
5:56 AM,71.1,70.0,96,29.64,5.0,Calm,Calm,-,N/A,,Clear,0,2013-07-24 09:56:00
6:56 AM,73.0,71.1,93,29.65,6.0,Calm,Calm,-,N/A,,Clear,0,2013-07-24 10:56:00
7:56 AM,75.9,72.0,87,29.66,10.0,Calm,Calm,-,N/A,,Clear,0,2013-07-24 11:56:00
8:56 AM,80.1,73.9,81,29.68,10.0,West,3.5,-,N/A,,Partly Cloudy,260,2013-07-24 12:56:00
9:56 AM,82.0,71.1,69,29.70,10.0,NW,5.8,-,N/A,,Mostly Cloudy,320,2013-07-24 13:56:00
10:56 AM,82.0,71.1,69,29.71,10.0,NW,6.9,-,N/A,,Partly Cloudy,320,2013-07-24 14:56:00
11:56 AM,82.0,70.0,67,29.73,10.0,NNW,6.9,-,N/A,,Clear,330,2013-07-24 15:56:00
12:56 PM,82.9,71.1,67,29.73,10.0,NNW,10.4,-,N/A,,Clear,330,2013-07-24 16:56:00
1:56 PM,84.9,69.1,59,29.74,10.0,WNW,10.4,19.6,N/A,,Partly Cloudy,290,2013-07-24 17:56:00
2:56 PM,82.9,66.9,58,29.76,10.0,WNW,6.9,-,N/A,,Clear,290,2013-07-24 18:56:00
3:56 PM,82.0,66.9,60,29.76,10.0,NW,10.4,-,N/A,,Clear,310,2013-07-24 19:56:00
4:56 PM,82.9,68.0,60,29.76,10.0,NW,10.4,-,N/A,,Clear,320,2013-07-24 20:56:00
5:56 PM,80.1,66.0,62,29.78,10.0,North,9.2,-,N/A,,Partly Cloudy,350,2013-07-24 21:56:00
6:56 PM,79.0,66.0,64,29.81,10.0,North,4.6,-,N/A,,Clear,350,2013-07-24 22:56:00
7:56 PM,75.9,66.9,74,29.84,10.0,Calm,Calm,-,N/A,,Overcast,0,2013-07-24 23:56:00
8:56 PM,75.9,64.9,69,29.86,10.0,NNW,4.6,-,N/A,,Overcast,340,2013-07-25 00:56:00
9:56 PM,75.0,62.1,64,29.88,10.0,North,4.6,-,N/A,,Overcast,10,2013-07-25 01:56:00
10:56 PM,73.0,59.0,61,29.90,10.0,North,6.9,-,N/A,,Mostly Cloudy,360,2013-07-25 02:56:00
11:56 PM,72.0,57.9,61,29.92,10.0,North,8.1,-,N/A,,Overcast,360,2013-07-25 03:56:00